Location: Conflandey
(47.7287°N, 6.0456°E)
Time: 22:13:06
(UTC+00:00)

Cosmos 1934 Rocket - Pass Details

Date: 24 October 2021
Orbit: 938 x 999 km, 83.0° (Epoch: 04 December)

Event Time Altitude Azimuth Distance (km) Brightness Sun altitude
Rises 17:25:41 0° 177° (S) 3,612 7.0 -9.8°
Reaches altitude 10° 17:28:11 10° 174° (S) 2,664 6.3 -10.2°
Maximum altitude 17:34:11 65° 94° (E) 1,031 3.9 -11.2°
Drops below altitude 10° 17:40:11 10° 14° (NNE) 2,664 6.1 -12.2°
Sets 17:42:41 0° 12° (NNE) 3,612 6.8 -12.7°
